sat.trackr.live / text

‹ back to catalog

STARLINK-36333

NORAD 68256 · 2026-054AA

PAYLOAD ACTIVE UNKNOWN

§ Identity

Operator
Country
US
Launch date
2026-03-17
Launch site
AFETR
Launch vehicle
Mass (kg)
RCS (m²)

Purposes: comms

External: N2YO · Heavens-Above · Gunter

§ Orbital elements

Epoch: 2026-05-24T20:44:34.732896Z

Period
94.10 min
Inclination
53.1574°
Eccentricity
0.0000716
Mean motion
15.30225881 rev/d
Perigee alt
474.6 km
Apogee alt
475.6 km
Semi-major
6,853.3 km
B*
7.4402e-4
RAAN
303.1360°
Arg perigee
124.5200°
Mean anomaly
235.5868°
Rev number
1,065

§ Raw data

STARLINK-363331 68256U 26054AA  26144.86429089  .00021759  00000+0  74402-3 0  99902 68256  53.1574 303.1360 0000716 124.5200 235.5868 15.30225881 10652

JSON: /api/v1/satellites/68256 · /tle

For live sub-satellite position, see the globe view (requires WebGL).

§ Visibility from observer

Set your observer location to see the next 7 days of passes ≥ 10°. The values pass through the URL so the page stays shareable.

No JS? Fill the form by hand. The geolocation button needs JavaScript.